This demonstration page uses our WeatherBlox Daily Observations layout. Learn more.

Hourly Observations for June 17, 2016

Temp ( °F °C ) Dew Point ( °F °C ) Humidity (%) Winds ( mph kmh ) Pressure ( in mb ) Visibility ( mi km ) Precip ( " mm )
12:15 am 00:15 Clear 80 26.7 67 19.6 65 65 S 14 22 29.74 1007 10 16.0934 0 0
12:35 am 00:35 Clear 78 25.6 67 19.7 70 70 SSE 7 11 29.74 1007 10 16.0934 0 0
12:55 am 00:55 Clear 76 24.6 68 20 76 76 SSE 7 11 29.77 1008 10 16.0934 0 0
1:15 am 01:15 Clear 76 24.4 69 20.4 78 78 SSE 7 11 29.77 1008 10 16.0934 0 0
1:35 am 01:35 Clear 75 24.1 69 20.6 81 81 SSE 6 9 29.77 1008 10 16.0934 0 0
1:55 am 01:55 Clear 74 23.5 69 20.6 84 84 SSE 7 11 29.77 1008 10 16.0934 0 0
2:15 am 02:15 Clear 73 23 69 20.3 85 85 SSE 3 6 29.77 1008 10 16.0934 0 0
2:35 am 02:35 Clear 73 22.8 68 20.2 85 85 SSE 6 9 29.77 1008 10 16.0934 0 0
2:55 am 02:55 Clear 73 22.6 69 20.5 88 88 SSE 7 11 29.77 1008 10 16.0934 0 0
3:15 am 03:15 Clear 72 22.4 69 20.3 88 88 SSE 7 11 29.77 1008 10 16.0934 0 0
3:35 am 03:35 Clear 72 22.2 69 20.3 89 89 S 7 11 29.77 1008 10 16.0934 0 0
3:55 am 03:55 Clear 71 21.8 68 20.1 90 90 SSE 7 11 29.8 1009 10 16.0934 0 0
4:15 am 04:15 Clear 72 22 68 20.2 90 90 SSE 6 9 29.77 1008 10 16.0934 0 0
4:35 am 04:35 Clear 71 21.6 68 19.9 90 90 SSE 5 7 29.8 1009 10 16.0934 0 0
4:55 am 04:55 Clear 70 20.9 67 19.4 91 91 Calm 29.83 1010 7 11.26538 0 0
5:15 am 05:15 Clear 68 20 65 18.5 91 91 E 5 7 29.83 1010 7 11.26538 0 0
5:35 am 05:35 Clear 69 20.5 66 19.1 92 92 Calm 29.83 1010 7 11.26538 0 0
5:55 am 05:55 Clear 67 19.5 65 18.3 93 93 E 3 6 29.83 1010 7 11.26538 0 0
6:15 am 06:15 Sunny with Mist and Fog 69 20.3 67 19.2 93 93 E 6 9 29.85 1011 5 8.0467 0 0
6:35 am 06:35 Sunny with Mist and Fog 69 20.5 67 19.5 94 94 ESE 5 7 29.85 1011 4 6.43736 0 0
6:55 am 06:55 Sunny with Mist and Fog 70 20.9 67 19.7 93 93 ESE 5 7 29.85 1011 3 4.82802 0 0
7:15 am 07:15 Sunny with Mist and Fog 71 21.5 68 20.2 92 92 ESE 3 6 29.85 1011 5 8.0467 0 0
7:35 am 07:35 Sunny with Mist and Fog 72 22.2 69 20.5 90 90 SE 5 7 29.85 1011 5 8.0467 0 0
7:55 am 07:55 Sunny 74 23.4 70 20.9 86 86 SE 6 9 29.83 1010 7 11.26538 0 0
8:15 am 08:15 Sunny 76 24.4 70 21.2 82 82 SE 6 9 29.85 1011 10 16.0934 0 0
8:35 am 08:35 Sunny 78 25.6 71 21.5 78 78 SSE 5 7 29.85 1011 10 16.0934 0 0
8:55 am 08:55 Sunny 80 26.6 71 21.7 75 75 SSE 5 7 29.83 1010 10 16.0934 0 0
9:15 am 09:15 Sunny 81 27.3 71 21.6 71 71 S 3 6 29.83 1010 10 16.0934 0 0
9:35 am 09:35 Sunny 82 28 71 21.9 70 70 SSE 3 6 29.83 1010 10 16.0934 0 0
9:55 am 09:55 Sunny 84 29 71 21.9 66 66 SE 3 6 29.83 1010 10 16.0934 0 0
10:15 am 10:15 Sunny 85 29.6 72 22.1 64 64 SSE 6 9 29.83 1010 10 16.0934 0 0
10:35 am 10:35 Sunny 87 30.5 71 21.6 59 59 SE 9 15 29.8 1009 10 16.0934 0 0
10:55 am 10:55 Sunny 88 31 72 22 59 59 SE 9 15 29.8 1009 10 16.0934 0 0
11:15 am 11:15 Sunny 89 31.7 70 21.1 53 53 SE 10 17 29.8 1009 10 16.0934 0 0
11:35 am 11:35 Sunny 90 32.2 69 20.6 50 50 SE 12 19 29.8 1009 10 16.0934 0 0
11:55 am 11:55 Sunny 91 32.9 69 20.4 48 48 ESE 12 19 29.8 1009 10 16.0934 0 0
12:15 pm 12:15 Sunny 92 33.2 68 20 46 46 ESE 10 17 29.8 1009 10 16.0934 0 0
12:35 pm 12:35 Sunny 92 33.5 67 19.4 43 43 SSE 14 22 29.8 1009 10 16.0934 0 0
12:55 pm 12:55 Sunny 93 33.7 68 19.8 44 44 SSE 14 22 29.8 1009 10 16.0934 0 0
1:15 pm 13:15 Sunny 93 34 68 20.1 44 44 SE 15 24 29.8 1009 10 16.0934 0 0
1:35 pm 13:35 Sunny 94 34.3 66 18.9 40 40 SSE 12 19 29.77 1008 10 16.0934 0 0
1:55 pm 13:55 Sunny 95 35.1 66 19.1 39 39 SE 14 22 29.77 1008 10 16.0934 0 0
2:15 pm 14:15 Sunny 95 35 64 17.8 36 36 SSE 12 19 29.77 1008 10 16.0934 0 0
2:35 pm 14:35 Sunny 95 35.1 64 17.5 35 35 SSE 14 22 29.77 1008 10 16.0934 0 0
2:55 pm 14:55 Sunny 96 35.4 62 16.8 33 33 SE 9 15 29.77 1008 10 16.0934 0 0
3:15 pm 15:15 Sunny 96 35.5 62 16.7 33 33 SE 12 19 29.77 1008 10 16.0934 0 0
3:35 pm 15:35 Sunny 96 35.8 62 16.9 33 33 ESE 12 19 29.77 1008 10 16.0934 0 0
3:55 pm 15:55 Sunny 97 36 62 16.9 32 32 ESE 14 22 29.77 1008 10 16.0934 0 0
4:15 pm 16:15 Sunny 97 36 63 17 32 32 SE 10 17 29.77 1008 10 16.0934 0 0
4:35 pm 16:35 Sunny 97 35.9 62 16.5 32 32 SSE 10 17 29.77 1008 10 16.0934 0 0
4:55 pm 16:55 Sunny 96 35.8 61 16.2 31 31 SE 10 17 29.74 1007 10 16.0934 0 0
5:15 pm 17:15 Sunny with Nearby Thunderstorms 96 35.8 60 15.8 30 30 SSE 12 19 29.74 1007 10 16.0934 0 0
5:35 pm 17:35 Sunny with Nearby Thunderstorms 97 36 62 16.5 31 31 ESE 13 20 29.71 1006 10 16.0934 0 0
5:55 pm 17:55 Sunny 94 34.5 62 16.4 34 34 ESE 14 22 29.71 1006 10 16.0934 0 0
6:15 pm 18:15 Sunny with Nearby Thunderstorms 93 33.8 61 16.3 35 35 ESE 14 22 29.68 1005 10 16.0934 0 0
6:35 pm 18:35 Sunny with Thunderstorms 91 33 62 16.6 37 37 SE 10 17 29.71 1006 10 16.0934 0 0
6:55 pm 18:55 Partly Cloudy with Nearby Thunderstorms 89 31.6 60 15.3 37 37 E 9 15 29.74 1007 10 16.0934 0 0
7:15 pm 19:15 Sunny with Light Thunderstorms 82 27.9 65 18.5 57 57 NE 10 17 29.77 1008 10 16.0934 0 0
7:35 pm 19:35 Sunny with Light Thunderstorms 80 26.9 64 18 58 58 SW 7 11 29.8 1009 10 16.0934 0 0
7:55 pm 19:55 Mostly Cloudy with Thunderstorms 73 22.5 60 15.7 66 66 W 32 52 29.94 1014 4 6.43736 0 0
8:15 pm 20:15 Partly Cloudy with Thunderstorms 71 21.5 61 16.3 72 72 W 37 59 29.97 1015 7 11.26538 0 0
8:35 pm 20:35 Mostly Cloudy with Heavy Thunderstorms 65 18.6 62 16.7 89 89 WSW 31 50 30.06 1018 1.75 2.816345 0.36 9.144
8:55 pm 20:55 Mostly Cloudy with Heavy Thunderstorms 66 19.1 63 17.3 89 89 WNW 13 20 30.12 1020 5 8.0467 0.74 18.796
9:15 pm 21:15 Cloudy with Thunderstorms 66 19.1 64 17.9 93 93 WNW 10 17 30.12 1020 7 11.26538 0.15 3.81
9:35 pm 21:35 Cloudy with Nearby Thunderstorms 67 19.3 63 17.4 89 89 W 17 28 30.06 1018 7 11.26538 0.2 5.08
9:55 pm 21:55 Cloudy 67 19.3 63 17 87 87 W 22 35 30.06 1018 10 16.0934 0.23 5.842
10:15 pm 22:15 Mostly Cloudy with Rain 67 19.5 62 16.4 82 82 WSW 15 24 30.06 1018 10 16.0934 0.02 0.508
10:35 pm 22:35 Cloudy 67 19.5 61 16.3 82 82 WSW 12 19 30.06 1018 10 16.0934 0.04 1.016
10:55 pm 22:55 Cloudy with Light Rain 67 19.7 61 16.2 80 80 SW 12 19 30 1016 10 16.0934 0.07 1.778
11:15 pm 23:15 Partly Cloudy 70 21 58 14.6 67 67 SSW 21 33 29.94 1014 10 16.0934 0 0
11:35 pm 23:35 Clear 70 21.2 58 14.3 65 65 S 20 31 29.91 1013 10 16.0934 0 0
11:55 pm 23:55 Clear 71 21.5 58 14.2 63 63 SSE 10 17 29.94 1014 10 16.0934 0 0

Powered by AerisWeather